QPF
0.01 0.01 0.01 0.01 0.02 0.02 0.01 0.01 0.01 0.02 0.03 0.03 0.04 0.06 0.07 0.07 0.07 0.09 0.10 0.10 0.14 0.09 0.06 0.05 0.06 0.06 0.07 0.06 0.05 0.05 0.04 0.02 0.03 0.03 0.02 0.02 0.03 0.03 0.03 0.04 0.04 0.03 0.03
0.01 0.02 0.03 0.02 0.02 0.02 0.02 0.01 0.02 0.02 0.03 0.03 0.03 0.05 0.07 0.09 0.07 0.08 0.08 0.09 0.11 0.07 0.04 0.03 0.03 0.04 0.04 0.03 0.03 0.03 0.02 0.01 0.02 0.02 0.02 0.02 0.03 0.03 0.04 0.04 0.04 0.04 0.04
0.01 0.02 0.02 0.02 0.02 0.03 0.03 0.06 0.06 0.04 0.03 0.04 0.04 0.05 0.07 0.11 0.09 0.06 0.06 0.09 0.12 0.07 0.03 0.02 0.03 0.03 0.02 0.02 0.02 0.02 0.02 0.01 0.02 0.02 0.02 0.01 0.02 0.03 0.05 0.05 0.05 0.05 0.04
0.02 0.02 0.03 0.03 0.03 0.04 0.05 0.09 0.15 0.13 0.10 0.09 0.06 0.04 0.06 0.07 0.07 0.06 0.07 0.11 0.12 0.07 0.03 0.02 0.02 0.02 0.02 0.02 0.02 0.02 0.02 0.02 0.02 0.02 0.02 0.02 0.02 0.02 0.03 0.04 0.05 0.04 0.04
0.03 0.02 0.03 0.03 0.04 0.07 0.10 0.10 0.10 0.13 0.14 0.14 0.10 0.06 0.06 0.08 0.08 0.07 0.09 0.12 0.11 0.09 0.06 0.03 0.01 0.01 0.02 0.02 0.02 0.02 0.03 0.01 0.02 0.02 0.02 0.02 0.03 0.02 0.02 0.03 0.04 0.04 0.03
0.02 0.01 0.02 0.05 0.07 0.09 0.12 0.11 0.09 0.07 0.08 0.10 0.11 0.09 0.08 0.08 0.08 0.05 0.05 0.06 0.07 0.08 0.07 0.03 0.01 0.01 0.01 0.01 0.02 0.02 0.02 0.01 0.02 0.02 0.02 0.02 0.02 0.01 0.01 0.01 0.02 0.03 0.04
0.01 0.00 0.01 0.05 0.08 0.09 0.11 0.10 0.08 0.06 0.06 0.06 0.08 0.08 0.08 0.08 0.07 0.06 0.05 0.04 0.05 0.06 0.06 0.04 0.02 0.01 0.01 0.02 0.03 0.02 0.02 0.02 0.01 0.02 0.02 0.02 0.02 0.02 0.02 0.01 0.01 0.01 0.01
0.01 0.01 0.02 0.03 0.06 0.08 0.09 0.09 0.08 0.09 0.09 0.09 0.10 0.10 0.10 0.12 0.12 0.11 0.09 0.06 0.05 0.04 0.05 0.05 0.03 0.03 0.03 0.03 0.03 0.03 0.02 0.02 0.02 0.02 0.02 0.02 0.02 0.03 0.02 0.03 0.03 0.02 0.01
0.02 0.02 0.04 0.06 0.07 0.07 0.07 0.11 0.14 0.14 0.14 0.14 0.15 0.17 0.17 0.17 0.14 0.13 0.13 0.12 0.09 0.06 0.06 0.07 0.08 0.07 0.05 0.03 0.02 0.02 0.02 0.02 0.02 0.02 0.01 0.02 0.02 0.02 0.02 0.04 0.05 0.04 0.02
0.03 0.03 0.03 0.04 0.04 0.04 0.04 0.06 0.12 0.17 0.18 0.19 0.19 0.16 0.17 0.15 0.11 0.09 0.10 0.10 0.11 0.09 0.08 0.10 0.11 0.09 0.07 0.04 0.02 0.02 0.02 0.02 0.02 0.02 0.02 0.02 0.03 0.03 0.03 0.04 0.04 0.05 0.04
0.06 0.03 0.03 0.04 0.05 0.06 0.04 0.06 0.08 0.10 0.12 0.14 0.15 0.12 0.11 0.09 0.07 0.06 0.07 0.07 0.07 0.08 0.07 0.07 0.08 0.07 0.06 0.04 0.03 0.03 0.03 0.02 0.02 0.02 0.03 0.03 0.06 0.07 0.05 0.05 0.04 0.03 0.02
0.07 0.05 0.03 0.04 0.05 0.05 0.04 0.05 0.06 0.07 0.09 0.07 0.06 0.06 0.05 0.05 0.04 0.04 0.04 0.04 0.04 0.05 0.05 0.05 0.04 0.04 0.05 0.04 0.04 0.03 0.02 0.02 0.02 0.03 0.03 0.04 0.05 0.05 0.07 0.05 0.02 0.02 0.01
0.11 0.08 0.04 0.04 0.04 0.06 0.05 0.04 0.05 0.07 0.06 0.04 0.03 0.03 0.03 0.03 0.02 0.02 0.03 0.03 0.03 0.03 0.04 0.04 0.03 0.02 0.04 0.04 0.03 0.02 0.02 0.02 0.02 0.04 0.04 0.04 0.04 0.04 0.05 0.05 0.03 0.02 0.02
0.14 0.10 0.06 0.05 0.04 0.04 0.03 0.03 0.05 0.06 0.05 0.04 0.02 0.02 0.02 0.02 0.02 0.02 0.02 0.04 0.03 0.03 0.04 0.04 0.04 0.05 0.05 0.03 0.03 0.04 0.04 0.05 0.04 0.04 0.04 0.04 0.04 0.02 0.03 0.03 0.03 0.02 0.02
0.13 0.09 0.07 0.05 0.04 0.04 0.03 0.03 0.04 0.05 0.05 0.04 0.03 0.01 0.01 0.01 0.01 0.02 0.02 0.03 0.04 0.04 0.05 0.05 0.05 0.05 0.05 0.04 0.05 0.07 0.06 0.05 0.04 0.04 0.04 0.03 0.02 0.02 0.03 0.03 0.02 0.02 0.03
0.09 0.09 0.09 0.06 0.04 0.03 0.03 0.03 0.03 0.04 0.04 0.03 0.02 0.02 0.01 0.01 0.01 0.01 0.02 0.02 0.03 0.04 0.05 0.04 0.03 0.03 0.03 0.03 0.04 0.04 0.03 0.03 0.03 0.03 0.02 0.02 0.02 0.02 0.02 0.02 0.02 0.02 0.02
0.08 0.09 0.06 0.05 0.05 0.04 0.02 0.02 0.02 0.02 0.02 0.02 0.02 0.02 0.02 0.02 0.01 0.01 0.01 0.01 0.02 0.03 0.03 0.03 0.03 0.02 0.02 0.03 0.03 0.03 0.02 0.02 0.02 0.02 0.01 0.01 0.01 0.02 0.02 0.02 0.02 0.02 0.02
0.05 0.05 0.05 0.04 0.05 0.05 0.04 0.04 0.03 0.02 0.02 0.02 0.02 0.02 0.02 0.02 0.02 0.02 0.01 0.02 0.02 0.03 0.03 0.03 0.02 0.02 0.02 0.03 0.03 0.03 0.03 0.02 0.02 0.02 0.02 0.02 0.01 0.02 0.03 0.02 0.02 0.02 0.02
0.04 0.05 0.05 0.04 0.03 0.04 0.04 0.04 0.04 0.02 0.02 0.02 0.02 0.02 0.02 0.02 0.02 0.02 0.01 0.01 0.01 0.02 0.02 0.02 0.03 0.03 0.02 0.03 0.03 0.03 0.03 0.02 0.02 0.01 0.01 0.01 0.01 0.03 0.03 0.02 0.01 0.01 0.01
0.04 0.04 0.05 0.05 0.03 0.03 0.04 0.04 0.03 0.02 0.02 0.02 0.02 0.02 0.02 0.02 0.02 0.02 0.02 0.01 0.01 0.01 0.01 0.02 0.02 0.02 0.02 0.02 0.02 0.02 0.02 0.02 0.02 0.02 0.01 0.02 0.01 0.02 0.02 0.02 0.01 0.01 0.00
0.05 0.04 0.03 0.03 0.03 0.03 0.04 0.04 0.04 0.03 0.03 0.03 0.02 0.01 0.01 0.01 0.01 0.01 0.01 0.02 0.02 0.02 0.03 0.03 0.01 0.01 0.01 0.02 0.02 0.02 0.02 0.01 0.01 0.01 0.01 0.01 0.01 0.01 0.02 0.01 0.01 0.00 0.01
0.07 0.06 0.05 0.03 0.03 0.03 0.03 0.03 0.03 0.04 0.04 0.03 0.03 0.02 0.01 0.01 0.01 0.01 0.01 0.02 0.02 0.02 0.03 0.03 0.03 0.02 0.01 0.02 0.02 0.01 0.01 0.01 0.01 0.01 0.01 0.01 0.01 0.01 0.01 0.01 0.01 0.01 0.01
0.07 0.08 0.07 0.05 0.04 0.03 0.02 0.03 0.03 0.04 0.04 0.04 0.03 0.03 0.02 0.02 0.02 0.02 0.02 0.02 0.02 0.02 0.02 0.02 0.02 0.02 0.02 0.02 0.02 0.01 0.01 0.01 0.01 0.01 0.01 0.01 0.01 0.01 0.01 0.01 0.01 0.00 0.00
0.09 0.09 0.08 0.06 0.07 0.05 0.03 0.02 0.03 0.04 0.05 0.04 0.03 0.03 0.03 0.03 0.03 0.03 0.03 0.03 0.03 0.03 0.02 0.02 0.02 0.02 0.01 0.01 0.01 0.02 0.01 0.01 0.01 0.01 0.01 0.01 0.01 0.01 0.00 0.00 0.00 0.00 0.00
0.06 0.08 0.09 0.08 0.06 0.05 0.03 0.02 0.02 0.04 0.06 0.05 0.03 0.02 0.03 0.03 0.04 0.04 0.04 0.04 0.03 0.03 0.02 0.02 0.03 0.02 0.02 0.01 0.01 0.01 0.01 0.01 0.01 0.01 0.01 0.01 0.01 0.01 0.00 0.00 0.00 0.00 0.00
0.05 0.07 0.06 0.06 0.06 0.06 0.04 0.03 0.02 0.02 0.05 0.07 0.05 0.02 0.02 0.02 0.03 0.02 0.03 0.04 0.03 0.03 0.03 0.03 0.03 0.02 0.02 0.01 0.01 0.02 0.02 0.02 0.03 0.02 0.01 0.01 0.01 0.01 0.01 0.00 0.00 0.00 0.00
MSLP
1006.89 1007.63 1008.30 1008.84 1009.22 1009.48 1009.65 1009.81 1010.02 1010.30 1010.68 1011.13 1011.59 1012.02 1012.37 1012.62 1012.75 1012.79 1012.79 1012.80 1012.85 1012.99 1013.23 1013.57 1013.99 1014.48 1015.02 1015.58 1016.18 1016.79 1017.42 1018.06 1018.69 1019.31 1019.86 1020.33 1020.70 1020.94 1021.07 1021.10 1021.06 1020.99 1020.92
1007.14 1007.95 1008.68 1009.26 1009.64 1009.88 1010.02 1010.14 1010.33 1010.62 1011.01 1011.50 1012.01 1012.48 1012.86 1013.10 1013.21 1013.22 1013.16 1013.11 1013.11 1013.22 1013.46 1013.81 1014.26 1014.78 1015.34 1015.92 1016.49 1017.07 1017.65 1018.24 1018.83 1019.41 1019.96 1020.44 1020.85 1021.15 1021.34 1021.43 1021.44 1021.39 1021.32
1007.32 1008.21 1009.01 1009.63 1010.04 1010.27 1010.39 1010.49 1010.66 1010.93 1011.33 1011.82 1012.35 1012.85 1013.25 1013.50 1013.61 1013.59 1013.51 1013.43 1013.42 1013.52 1013.75 1014.11 1014.57 1015.10 1015.65 1016.20 1016.73 1017.25 1017.76 1018.28 1018.80 1019.34 1019.88 1020.38 1020.84 1021.21 1021.48 1021.65 1021.73 1021.73 1021.69
1007.45 1008.39 1009.25 1009.91 1010.36 1010.61 1010.73 1010.81 1010.95 1011.21 1011.59 1012.07 1012.60 1013.11 1013.52 1013.79 1013.91 1013.91 1013.84 1013.77 1013.77 1013.87 1014.11 1014.47 1014.93 1015.43 1015.95 1016.46 1016.93 1017.37 1017.79 1018.22 1018.68 1019.17 1019.68 1020.19 1020.68 1021.12 1021.48 1021.74 1021.90 1021.98 1021.98
1007.56 1008.52 1009.40 1010.11 1010.59 1010.87 1011.00 1011.08 1011.20 1011.42 1011.77 1012.23 1012.75 1013.25 1013.68 1013.98 1014.14 1014.18 1014.15 1014.12 1014.14 1014.27 1014.52 1014.88 1015.32 1015.80 1016.28 1016.72 1017.12 1017.47 1017.81 1018.15 1018.53 1018.95 1019.42 1019.92 1020.43 1020.91 1021.34 1021.68 1021.93 1022.09 1022.15
1007.69 1008.64 1009.53 1010.26 1010.76 1011.06 1011.21 1011.28 1011.38 1011.57 1011.88 1012.31 1012.81 1013.31 1013.75 1014.08 1014.29 1014.39 1014.43 1014.45 1014.53 1014.68 1014.94 1015.30 1015.73 1016.18 1016.61 1017.00 1017.33 1017.61 1017.87 1018.13 1018.42 1018.77 1019.18 1019.64 1020.13 1020.63 1021.09 1021.50 1021.82 1022.05 1022.18
1007.92 1008.80 1009.67 1010.39 1010.91 1011.21 1011.37 1011.44 1011.52 1011.68 1011.96 1012.35 1012.82 1013.31 1013.76 1014.13 1014.40 1014.57 1014.67 1014.76 1014.89 1015.08 1015.36 1015.71 1016.12 1016.54 1016.94 1017.29 1017.57 1017.80 1018.00 1018.19 1018.41 1018.68 1019.01 1019.41 1019.85 1020.32 1020.79 1021.22 1021.59 1021.88 1022.08
1008.27 1009.07 1009.87 1010.55 1011.05 1011.35 1011.50 1011.57 1011.63 1011.77 1012.01 1012.37 1012.82 1013.30 1013.77 1014.17 1014.49 1014.72 1014.90 1015.05 1015.22 1015.44 1015.73 1016.08 1016.47 1016.87 1017.24 1017.57 1017.84 1018.05 1018.21 1018.36 1018.52 1018.72 1018.98 1019.29 1019.66 1020.08 1020.50 1020.93 1021.31 1021.64 1021.90
1008.76 1009.44 1010.15 1010.76 1011.21 1011.49 1011.63 1011.69 1011.74 1011.86 1012.08 1012.42 1012.84 1013.32 1013.80 1014.23 1014.59 1014.88 1015.11 1015.31 1015.52 1015.76 1016.04 1016.38 1016.76 1017.14 1017.51 1017.84 1018.11 1018.33 1018.50 1018.64 1018.77 1018.92 1019.10 1019.34 1019.62 1019.95 1020.31 1020.69 1021.07 1021.42 1021.71
1009.36 1009.92 1010.50 1011.02 1011.40 1011.64 1011.75 1011.80 1011.86 1011.97 1012.18 1012.50 1012.91 1013.39 1013.87 1014.32 1014.72 1015.05 1015.33 1015.56 1015.79 1016.03 1016.31 1016.63 1016.98 1017.35 1017.72 1018.07 1018.37 1018.62 1018.83 1018.99 1019.13 1019.25 1019.39 1019.55 1019.75 1019.99 1020.27 1020.59 1020.93 1021.27 1021.59
1010.02 1010.45 1010.90 1011.30 1011.60 1011.78 1011.87 1011.91 1011.96 1012.08 1012.29 1012.61 1013.02 1013.49 1013.98 1014.46 1014.88 1015.24 1015.54 1015.80 1016.03 1016.27 1016.53 1016.83 1017.16 1017.52 1017.89 1018.26 1018.60 1018.91 1019.17 1019.38 1019.55 1019.68 1019.80 1019.91 1020.04 1020.20 1020.41 1020.66 1020.95 1021.27 1021.58
1010.67 1010.97 1011.29 1011.57 1011.77 1011.89 1011.94 1011.98 1012.04 1012.17 1012.39 1012.71 1013.13 1013.60 1014.10 1014.59 1015.03 1015.42 1015.75 1016.03 1016.27 1016.50 1016.74 1017.01 1017.31 1017.66 1018.02 1018.40 1018.79 1019.15 1019.47 1019.75 1019.97 1020.14 1020.26 1020.35 1020.44 1020.54 1020.68 1020.87 1021.11 1021.39 1021.69
1011.24 1011.43 1011.62 1011.78 1011.89 1011.94 1011.97 1012.00 1012.07 1012.21 1012.44 1012.78 1013.19 1013.67 1014.18 1014.68 1015.14 1015.56 1015.92 1016.22 1016.48 1016.71 1016.95 1017.19 1017.47 1017.79 1018.14 1018.53 1018.93 1019.33 1019.71 1020.05 1020.33 1020.55 1020.70 1020.80 1020.87 1020.94 1021.03 1021.17 1021.35 1021.59 1021.87
1011.68 1011.78 1011.86 1011.92 1011.94 1011.94 1011.94 1011.96 1012.03 1012.19 1012.43 1012.77 1013.18 1013.65 1014.16 1014.67 1015.16 1015.61 1016.01 1016.35 1016.65 1016.91 1017.15 1017.39 1017.64 1017.93 1018.26 1018.63 1019.03 1019.45 1019.87 1020.25 1020.58 1020.85 1021.05 1021.17 1021.25 1021.31 1021.37 1021.46 1021.61 1021.80 1022.05
1011.98 1012.00 1012.00 1011.97 1011.92 1011.87 1011.85 1011.86 1011.94 1012.10 1012.34 1012.66 1013.06 1013.52 1014.02 1014.53 1015.05 1015.54 1015.99 1016.40 1016.75 1017.06 1017.33 1017.58 1017.83 1018.09 1018.39 1018.73 1019.11 1019.52 1019.94 1020.34 1020.71 1021.01 1021.25 1021.41 1021.51 1021.57 1021.62 1021.69 1021.79 1021.95 1022.16
1012.13 1012.09 1012.01 1011.92 1011.83 1011.76 1011.72 1011.73 1011.81 1011.96 1012.18 1012.47 1012.83 1013.26 1013.74 1014.25 1014.79 1015.32 1015.84 1016.32 1016.75 1017.14 1017.47 1017.75 1018.01 1018.26 1018.53 1018.83 1019.17 1019.54 1019.93 1020.33 1020.71 1021.04 1021.30 1021.50 1021.62 1021.69 1021.74 1021.79 1021.87 1021.99 1022.15
1012.11 1012.03 1011.91 1011.79 1011.67 1011.59 1011.55 1011.57 1011.64 1011.77 1011.96 1012.21 1012.52 1012.90 1013.34 1013.84 1014.38 1014.96 1015.54 1016.11 1016.65 1017.12 1017.53 1017.87 1018.16 1018.42 1018.66 1018.92 1019.21 1019.53 1019.89 1020.26 1020.62 1020.95 1021.23 1021.45 1021.60 1021.69 1021.74 1021.78 1021.83 1021.92 1022.04
1011.91 1011.81 1011.67 1011.54 1011.43 1011.36 1011.34 1011.37 1011.44 1011.55 1011.70 1011.89 1012.14 1012.46 1012.85 1013.32 1013.87 1014.48 1015.12 1015.78 1016.41 1016.99 1017.49 1017.91 1018.24 1018.52 1018.76 1018.99 1019.24 1019.51 1019.82 1020.15 1020.49 1020.81 1021.10 1021.33 1021.49 1021.60 1021.66 1021.69 1021.73 1021.78 1021.86
1011.52 1011.40 1011.27 1011.16 1011.08 1011.05 1011.06 1011.11 1011.19 1011.28 1011.40 1011.54 1011.73 1011.98 1012.32 1012.75 1013.28 1013.91 1014.60 1015.33 1016.05 1016.72 1017.32 1017.82 1018.22 1018.54 1018.79 1019.02 1019.24 1019.48 1019.75 1020.04 1020.36 1020.67 1020.95 1021.19 1021.37 1021.49 1021.56 1021.59 1021.61 1021.63 1021.67
1010.91 1010.78 1010.67 1010.59 1010.56 1010.59 1010.65 1010.74 1010.85 1010.95 1011.05 1011.16 1011.29 1011.49 1011.77 1012.17 1012.68 1013.31 1014.03 1014.80 1015.59 1016.34 1017.02 1017.60 1018.07 1018.44 1018.73 1018.97 1019.19 1019.42 1019.67 1019.96 1020.26 1020.56 1020.85 1021.09 1021.28 1021.41 1021.49 1021.52 1021.52 1021.52 1021.53
1010.04 1009.91 1009.82 1009.79 1009.82 1009.92 1010.06 1010.21 1010.36 1010.49 1010.60 1010.70 1010.82 1010.98 1011.23 1011.59 1012.08 1012.70 1013.42 1014.22 1015.04 1015.85 1016.59 1017.23 1017.77 1018.20 1018.54 1018.82 1019.07 1019.32 1019.58 1019.87 1020.18 1020.49 1020.78 1021.03 1021.24 1021.38 1021.46 1021.49 1021.49 1021.47 1021.46
1008.91 1008.77 1008.70 1008.72 1008.82 1009.00 1009.22 1009.45 1009.67 1009.86 1010.01 1010.14 1010.27 1010.44 1010.67 1011.02 1011.49 1012.10 1012.81 1013.61 1014.44 1015.27 1016.04 1016.73 1017.32 1017.81 1018.21 1018.55 1018.85 1019.15 1019.45 1019.76 1020.09 1020.41 1020.72 1020.99 1021.20 1021.35 1021.44 1021.48 1021.47 1021.45 1021.42
1007.52 1007.37 1007.32 1007.38 1007.55 1007.81 1008.11 1008.44 1008.74 1009.02 1009.25 1009.44 1009.62 1009.82 1010.09 1010.44 1010.91 1011.50 1012.20 1012.98 1013.80 1014.63 1015.41 1016.13 1016.75 1017.29 1017.75 1018.16 1018.52 1018.87 1019.23 1019.58 1019.95 1020.30 1020.62 1020.90 1021.13 1021.28 1021.38 1021.42 1021.42 1021.39 1021.35
1005.92 1005.75 1005.72 1005.82 1006.05 1006.38 1006.77 1007.18 1007.58 1007.95 1008.28 1008.57 1008.84 1009.11 1009.44 1009.83 1010.32 1010.91 1011.60 1012.36 1013.15 1013.95 1014.73 1015.45 1016.09 1016.67 1017.18 1017.65 1018.08 1018.49 1018.90 1019.31 1019.71 1020.08 1020.42 1020.71 1020.94 1021.10 1021.20 1021.24 1021.25 1021.22 1021.19
1004.19 1004.01 1003.99 1004.13 1004.40 1004.79 1005.25 1005.74 1006.24 1006.71 1007.14 1007.54 1007.92 1008.29 1008.70 1009.16 1009.70 1010.31 1010.99 1011.73 1012.50 1013.27 1014.02 1014.73 1015.38 1015.98 1016.53 1017.05 1017.53 1018.00 1018.47 1018.91 1019.34 1019.74 1020.08 1020.38 1020.60 1020.76 1020.85 1020.90 1020.91 1020.89 1020.87
1002.44 1002.27 1002.26 1002.42 1002.73 1003.16 1003.67 1004.23 1004.80 1005.36 1005.89 1006.40 1006.89 1007.37 1007.88 1008.43 1009.02 1009.67 1010.37 1011.10 1011.85 1012.60 1013.32 1014.01 1014.67 1015.28 1015.85 1016.40 1016.93 1017.44 1017.93 1018.40 1018.85 1019.24 1019.59 1019.87 1020.08 1020.22 1020.31 1020.35 1020.37 1020.36 1020.36
Thickness
5778 5777 5774 5771 5767 5763 5759 5756 5753 5750 5748 5744 5741 5739 5737 5737 5736 5736 5734 5733 5731 5729 5727 5724 5722 5720 5718 5716 5715 5713 5711 5710 5710 5707 5704 5705 5708 5708 5709 5709 5708 5707 5706
5769 5769 5767 5764 5761 5757 5754 5751 5749 5746 5743 5741 5739 5737 5734 5733 5733 5732 5730 5729 5728 5726 5724 5721 5719 5717 5715 5713 5711 5710 5707 5706 5706 5702 5696 5693 5696 5701 5705 5705 5704 5704 5703
5764 5763 5761 5758 5755 5752 5750 5748 5745 5742 5739 5737 5734 5731 5728 5727 5726 5726 5725 5725 5724 5723 5721 5719 5717 5714 5713 5710 5708 5707 5705 5701 5701 5702 5696 5689 5687 5691 5697 5700 5701 5700 5699
5763 5759 5756 5753 5751 5749 5747 5744 5742 5739 5735 5733 5729 5725 5722 5720 5721 5722 5721 5721 5720 5719 5718 5716 5714 5712 5710 5707 5706 5705 5703 5700 5697 5697 5697 5696 5693 5688 5686 5691 5695 5696 5695
5760 5757 5754 5752 5749 5746 5742 5739 5737 5733 5730 5729 5726 5722 5719 5718 5717 5718 5717 5716 5715 5715 5714 5713 5710 5708 5706 5705 5703 5701 5700 5698 5695 5693 5692 5691 5690 5689 5684 5682 5685 5689 5691
5756 5754 5752 5747 5743 5739 5736 5733 5730 5728 5726 5724 5722 5720 5716 5714 5712 5711 5711 5710 5710 5710 5710 5709 5707 5705 5703 5701 5700 5698 5696 5695 5694 5692 5690 5688 5686 5684 5682 5679 5678 5679 5684
5749 5746 5743 5739 5736 5733 5730 5728 5725 5723 5722 5720 5718 5717 5714 5712 5709 5709 5708 5706 5705 5705 5705 5705 5703 5701 5700 5699 5697 5695 5693 5692 5691 5689 5688 5687 5686 5685 5682 5678 5675 5674 5677
5743 5741 5739 5736 5733 5729 5726 5725 5721 5719 5718 5716 5714 5712 5711 5709 5707 5706 5706 5703 5702 5702 5702 5701 5699 5698 5696 5695 5693 5691 5689 5689 5688 5687 5686 5685 5684 5683 5682 5678 5673 5669 5669
5735 5735 5733 5731 5728 5726 5723 5722 5718 5716 5714 5712 5711 5709 5708 5704 5703 5702 5701 5699 5698 5699 5698 5696 5694 5693 5692 5691 5689 5687 5685 5685 5684 5684 5683 5682 5681 5681 5680 5678 5675 5669 5664
5726 5725 5725 5725 5723 5722 5721 5719 5716 5712 5709 5707 5704 5704 5702 5700 5698 5697 5696 5695 5694 5694 5693 5692 5690 5688 5686 5685 5684 5683 5682 5681 5681 5680 5679 5678 5678 5677 5676 5675 5673 5670 5665
5718 5718 5718 5718 5718 5717 5714 5711 5709 5706 5703 5701 5699 5699 5697 5696 5695 5693 5692 5691 5690 5689 5688 5687 5685 5683 5681 5680 5679 5678 5678 5677 5676 5676 5675 5674 5674 5672 5671 5670 5669 5666 5663
5714 5713 5712 5711 5709 5708 5707 5705 5703 5701 5699 5697 5696 5694 5693 5692 5690 5689 5688 5687 5685 5685 5684 5682 5680 5679 5677 5676 5674 5673 5673 5672 5671 5671 5670 5670 5670 5668 5666 5665 5663 5662 5660
5707 5705 5704 5702 5702 5701 5700 5699 5698 5696 5695 5694 5691 5689 5688 5687 5685 5684 5683 5682 5680 5679 5678 5677 5675 5674 5673 5672 5671 5670 5669 5668 5668 5667 5666 5666 5665 5663 5662 5660 5659 5657 5657
5698 5697 5695 5694 5695 5695 5694 5693 5691 5691 5690 5688 5686 5684 5682 5681 5680 5679 5678 5677 5675 5673 5672 5672 5671 5669 5668 5668 5667 5666 5665 5664 5663 5663 5662 5661 5660 5659 5658 5656 5654 5653 5651
5690 5690 5689 5688 5688 5688 5687 5687 5686 5685 5685 5682 5680 5678 5677 5675 5674 5673 5672 5671 5670 5669 5667 5666 5665 5664 5664 5664 5663 5661 5660 5658 5658 5658 5658 5658 5657 5657 5655 5654 5651 5648 5645
5682 5682 5682 5682 5681 5681 5681 5680 5679 5679 5678 5676 5673 5672 5670 5669 5668 5667 5666 5665 5664 5663 5662 5661 5660 5659 5660 5660 5659 5657 5655 5654 5653 5652 5652 5652 5652 5652 5651 5650 5648 5646 5642
5675 5675 5675 5676 5675 5674 5675 5673 5672 5672 5671 5669 5667 5666 5664 5662 5662 5662 5660 5658 5657 5656 5655 5654 5654 5654 5654 5655 5654 5653 5651 5649 5648 5647 5646 5647 5647 5646 5644 5643 5642 5641 5640
5667 5668 5668 5667 5668 5668 5668 5668 5667 5665 5664 5662 5661 5660 5658 5657 5655 5654 5653 5652 5651 5650 5649 5649 5649 5648 5649 5649 5648 5647 5645 5644 5643 5643 5642 5641 5641 5641 5639 5637 5636 5635 5635
5660 5662 5663 5661 5661 5662 5662 5661 5660 5659 5657 5656 5655 5654 5652 5650 5649 5647 5646 5646 5645 5644 5644 5644 5643 5643 5643 5643 5642 5641 5638 5637 5637 5638 5638 5637 5636 5635 5634 5631 5629 5628 5629
5653 5655 5656 5656 5656 5657 5656 5655 5653 5651 5650 5650 5650 5649 5648 5645 5644 5642 5641 5641 5640 5639 5638 5638 5638 5638 5637 5637 5636 5635 5633 5631 5632 5632 5632 5632 5631 5630 5628 5626 5624 5622 5623
5648 5649 5650 5649 5650 5651 5649 5648 5647 5645 5645 5645 5644 5644 5642 5640 5639 5637 5636 5634 5633 5633 5632 5631 5631 5631 5631 5631 5631 5630 5629 5627 5626 5625 5625 5626 5626 5625 5623 5622 5620 5620 5619
5640 5641 5641 5642 5643 5644 5642 5640 5640 5640 5640 5640 5639 5637 5636 5636 5635 5631 5630 5628 5627 5625 5625 5623 5623 5624 5625 5626 5626 5625 5624 5623 5621 5621 5621 5621 5621 5620 5618 5617 5616 5615 5613
5632 5633 5632 5633 5635 5636 5636 5634 5634 5635 5634 5633 5632 5631 5630 5630 5629 5626 5623 5621 5620 5618 5617 5617 5616 5617 5618 5620 5620 5619 5619 5618 5616 5616 5617 5616 5615 5614 5612 5612 5611 5610 5607
5624 5624 5624 5624 5625 5627 5628 5629 5629 5629 5627 5626 5625 5624 5623 5622 5622 5620 5618 5616 5614 5613 5611 5611 5611 5611 5612 5612 5613 5613 5612 5611 5610 5610 5610 5609 5609 5608 5608 5607 5606 5605 5604
5614 5615 5615 5615 5617 5619 5620 5622 5622 5622 5620 5619 5618 5618 5617 5616 5615 5614 5614 5613 5612 5611 5609 5608 5607 5606 5606 5608 5608 5607 5607 5606 5605 5604 5602 5602 5602 5601 5602 5602 5602 5601 5600
5605 5605 5607 5608 5610 5611 5612 5614 5615 5615 5614 5613 5612 5612 5611 5610 5609 5608 5607 5608 5608 5608 5607 5607 5605 5605 5605 5605 5604 5603 5603 5602 5601 5598 5597 5598 5598 5598 5598 5598 5598 5598 5597